Regional Weather Roundup
Issued by NWS Charleston, SC

Current Version | Previous Version | Graphics & Text | Print | Product List | Glossary On
Versions: 1 2 3 4 5 6 7 8 9 10 11 12 13 14 15 16 17 18 19 20 21 22 23 24 25 26 27 28 29 30 31 32 33 34 35 36 37 38 39 40 41 42 43 44 45 46 47 48 49 50
277 ASUS42 KCHS 230513 RWRCHS REGIONAL WEATHER ROUNDUP NATIONAL WEATHER SERVICE CHARLESTON SC 100 AM EDT SAT JUL 23 2016 NOTE: "FAIR" INDICATES FEW OR NO CLOUDS BELOW 12,000 FEET WITH NO SIGNIFICANT WEATHER AND/OR OBSTRUCTIONS TO VISIBILITY. NOT ALL STATIONS ARE QUALITY CONTROLLED. USE DATA WITH CAUTION... ESPECIALLY DEWPOINT OBSERVATIONS. SCZ027-030-031-034>040-042>050-230600- ...SOUTHEAST SOUTH CAROLINA... CITY SKY/WX TMP DP RH WIND PRES REMARKS N CHARLESTON PTCLDY 79 74 84 S3 30.03F WATERFRONT PRK N/A 84 76 77 VRB3 30.02S HX 93 MOUNT PLEASANT FAIR 77 73 88 CALM 30.04S JOHNS ISLAND FAIR 81 75 83 CALM 30.04S PINOPOLIS N/A 81 75 83 VRB3 29.97S MONCKS CORNER FAIR 73 72 94 CALM 30.03F SUMMERVILLE FAIR 77 77 100 CALM 30.05S BEAUFORT MCAS CLEAR 83 76 79 S5 30.04S HX 91 BEAUFORT ARPT FAIR 82 75 78 SW5 30.04S HILTON HEAD IS CLEAR 82 75 78 S7 30.05S WALTERBORO PTCLDY 81 79 94 CALM 30.05S ALLENDALE FAIR 79 73 83 CALM 30.03F ...SOUTHERN MIDLANDS AND PEE DEE... CITY SKY/WX TMP DP RH WIND PRES REMARKS GEORGETOWN NOT AVBL KINGSTREE FAIR 77 72 83 CALM 30.02F ORANGEBURG CLEAR 79 75 87 SW6 30.04S BARNWELL NOT AVBL AIKEN FAIR 79 72 78 S7 30.08S MANNING FAIR 81 73 78 S6 30.03S COLUMBIA PTCLDY 83 72 69 SW6 30.02R SUMTER CLEAR 81 74 80 S9 30.00S FLORENCE CLEAR 79 73 82 S7 30.02S MYRTLE BEACH CLEAR 82 66 57 SW9 30.04F N MYRTLE BEACH CLEAR 83 72 69 SW12 30.02F $$ GAZ063-065-086>088-099>101-113>116-118-119-134>141-150-230600- ...SOUTHEAST GEORGIA... CITY SKY/WX TMP DP RH WIND PRES REMARKS SAVANNAH ARPT PTCLDY 80 74 81 SW6 30.05S HUNTER AAF PTCLDY 81 79 93 SW6 30.02F HX 90 FORT STEWART CLEAR 79 74 83 MISG 30.02F STATESBORO PTCLDY 79 76 89 CALM 30.04F SYLVANIA NOT AVBL CLAXTON FAIR 79 73 83 CALM 30.04F ...CSRA...CENTRAL AND FAR SOUTHEAST GEORGIA... CITY SKY/WX TMP DP RH WIND PRES REMARKS THOMSON CLEAR 78 75 89 CALM 30.09S AUGUSTA-BUSH PTCLDY 76 72 87 S5 30.04R AUGUSTA-DANIEL PTCLDY 83 70 64 SW6 30.06R SWAINSBORO FAIR 79 73 83 CALM 30.06S VIDALIA PTCLDY 79 70 73 S6 30.05F EASTMAN FAIR 81 65 58 CALM 30.08R HAZLEHURST FAIR 80 75 85 CALM 30.04F ALMA CLOUDY 76 74 93 CALM 30.05F WAYCROSS MOCLDY 80 76 89 S3 30.06F JESUP FAIR 77 73 88 CALM 30.05F BAXLEY FAIR 73 73 100 CALM 30.05S BRUNSWICK CLEAR 81 75 83 W7 30.06S SAINT SIMONS CLEAR 81 74 79 W8 30.05S $$ SCZ027-028-034-036>038-045-046-048>050-GAZ119-141-230600- ...LAKE AND SUPPLEMENTAL COASTAL OBSERVATIONS... STATION/POSITION TIME TEMP WIND PRES WAVE SWELL AIR SEA DIR/SP/G HT/PER HT/PER/DIR (UTC) (F) (DEG/KT/KT) (MB) (FT/S) (FT/S/D) WINYAH BAY 0345 83 190/ 6 1017.0 LAKE MURRAY 0400 85 230/ 10/ 12 1015.9S ACE BASIN NERRS NOT AVBL FORT PULASKI 0400 85 88 170/ 5/ 9 N/A SAPELO ISLAND 0400 85 180/ 10 1017.0F $$ ANZ835-935-AMZ111-154-330-350-352-354-370-450-454-472-230600- ...C-MAN AND BUOY OBSERVATIONS... STATION/POSITION TIME TEMP WIND PRES WAVE SWELL AIR SEA DIR/SP/G HT/PER HT/PER/DIR (UTC) (F) (DEG/KT/KT) (MB) (FT/S) (FT/S/D) BUOY 41004 0450 84 86 190/ 10/ 12 1016.6F 2/ 8 2/120/ 8 BUOY 41008 0450 85 86 190/ 12/ 14 1017.2S 2/10 2/100/10 FOLLY BEACH CMAN 0400 85 180/ 12/ 14 1017.4F CAPERS NEARSHORE 0408 85 85 200/ 12/ 16 1016.8F FRIPP NEARSHORE 0408 85 86 190/ 12/ 16 1016.5F STATION/POSITION TIME TEMP WIND PRES WAVE SWELL AIR SEA DIR/SP/G HT/PER HT/PER/DIR (UTC) (F) (DEG/KT/KT) (MB) (FT/S) (FT/S/D) 5E ST. MARYS GA 0401 86 N/A 3/10 FRYING PAN BUOY 0400 84 86 220/ 8/ 10 1016.8F BUOY 41025 0450 83 86 220/ 12/ 14 1016.6F 2/ 8 2/120/ 8 CAPE LOOKOUT NC 0500 82 230/ 7/ 9 1016.5F BUOY 41002 0450 82 85 150/ 4/ 4 1017.1F 3/ 9 3/100/ 9 BUOY 41010 0420 84 87 CALM / 2 1017.4S ST AUGUSTINE FL 0500 81 88 260/ 4/ 5 1018.2S $$

USA.gov is the U.S. government's official web portal to all federal, state and local government web resources and services.